Time,TemperatureF,DewpointF,PressureIn,WindDirection,WindDirectionDegrees,WindSpeedMPH,WindSpeedGustMPH,Humidity,HourlyPrecipIn,Conditions,Clouds,dailyrainin,SoftwareType,DateUTC
2013-10-31 00:03:00,37.0,27.0,25.06,WNW,285,7.0,14.0,68,0.00,,,0.00,weatherlink.com 1.10,2013-10-31 06:03:00,
2013-10-31 00:18:00,37.1,27.0,25.05,West,262,6.0,11.0,68,0.00,,,0.00,weatherlink.com 1.10,2013-10-31 06:18:00,
2013-10-31 00:33:00,36.6,27.0,25.05,West,267,8.0,8.0,69,0.00,,,0.00,weatherlink.com 1.10,2013-10-31 06:33:00,
2013-10-31 00:48:00,36.1,28.0,25.05,West,271,7.0,11.0,71,0.00,,,0.00,weatherlink.com 1.10,2013-10-31 06:48:00,
2013-10-31 01:03:00,36.0,28.0,25.05,NW,304,8.0,11.0,72,0.00,,,0.00,weatherlink.com 1.10,2013-10-31 07:03:00,
2013-10-31 01:18:00,37.1,28.0,25.05,West,274,5.0,10.0,69,0.00,,,0.00,weatherlink.com 1.10,2013-10-31 07:18:00,
2013-10-31 01:33:00,37.0,28.0,25.05,West,281,5.0,10.0,69,0.00,,,0.00,weatherlink.com 1.10,2013-10-31 07:33:00,
2013-10-31 01:48:00,36.7,28.0,25.04,West,269,7.0,10.0,70,0.00,,,0.00,weatherlink.com 1.10,2013-10-31 07:48:00,
2013-10-31 02:03:00,36.4,28.0,25.04,WNW,287,5.0,9.0,71,0.00,,,0.00,weatherlink.com 1.10,2013-10-31 08:03:00,
2013-10-31 02:18:00,36.1,28.0,25.04,WNW,288,4.0,13.0,72,0.00,,,0.00,weatherlink.com 1.10,2013-10-31 08:18:00,
2013-10-31 02:33:00,36.1,28.0,25.04,West,260,8.0,11.0,73,0.00,,,0.00,weatherlink.com 1.10,2013-10-31 08:33:00,
2013-10-31 02:48:00,35.9,28.0,25.04,NW,309,5.0,11.0,74,0.00,,,0.00,weatherlink.com 1.10,2013-10-31 08:48:00,
2013-10-31 03:03:00,36.9,29.0,25.04,NNW,330,6.0,12.0,73,0.00,,,0.00,weatherlink.com 1.10,2013-10-31 09:03:00,
2013-10-31 03:18:00,38.3,29.0,25.03,NW,321,7.0,17.0,68,0.00,,,0.00,weatherlink.com 1.10,2013-10-31 09:18:00,
2013-10-31 03:33:00,38.4,28.0,25.04,NW,323,7.0,17.0,67,0.00,,,0.00,weatherlink.com 1.10,2013-10-31 09:33:00,
2013-10-31 03:48:00,38.5,28.0,25.04,NNW,340,10.0,16.0,67,0.00,,,0.00,weatherlink.com 1.10,2013-10-31 09:48:00,
2013-10-31 04:03:00,38.8,29.0,25.04,NW,326,7.0,19.0,67,0.00,,,0.00,weatherlink.com 1.10,2013-10-31 10:03:00,
2013-10-31 04:18:00,38.9,28.0,25.04,NW,317,11.0,20.0,65,0.00,,,0.00,weatherlink.com 1.10,2013-10-31 10:18:00,
2013-10-31 04:33:00,38.6,28.0,25.04,West,281,10.0,21.0,65,0.00,,,0.00,weatherlink.com 1.10,2013-10-31 10:33:00,
2013-10-31 04:48:00,38.3,27.0,25.04,NW,326,10.0,23.0,65,0.00,,,0.00,weatherlink.com 1.10,2013-10-31 10:48:00,
2013-10-31 05:03:00,38.1,27.0,25.04,NW,315,16.0,22.0,65,0.00,,,0.00,weatherlink.com 1.10,2013-10-31 11:03:00,
2013-10-31 05:18:00,37.7,27.0,25.05,NW,321,9.0,17.0,65,0.00,,,0.00,weatherlink.com 1.10,2013-10-31 11:18:00,
2013-10-31 05:33:00,37.1,27.0,25.05,NW,314,7.0,16.0,66,0.00,,,0.00,weatherlink.com 1.10,2013-10-31 11:33:00,
2013-10-31 05:48:00,37.0,27.0,25.05,NNW,344,8.0,17.0,66,0.00,,,0.00,weatherlink.com 1.10,2013-10-31 11:48:00,
2013-10-31 06:03:00,36.8,27.0,25.06,NW,310,12.0,20.0,67,0.00,,,0.00,weatherlink.com 1.10,2013-10-31 12:03:00,
2013-10-31 06:18:00,38.0,26.0,25.06,NNW,332,10.0,16.0,63,0.00,,,0.00,weatherlink.com 1.10,2013-10-31 12:18:00,
2013-10-31 06:33:00,39.2,26.0,25.06,NW,325,11.0,19.0,59,0.00,,,0.00,weatherlink.com 1.10,2013-10-31 12:33:00,
2013-10-31 06:48:00,39.6,25.0,25.05,NW,316,10.0,22.0,57,0.00,,,0.00,weatherlink.com 1.10,2013-10-31 12:48:00,
2013-10-31 07:03:00,38.8,25.0,25.05,NW,316,9.0,22.0,58,0.00,,,0.00,weatherlink.com 1.10,2013-10-31 13:03:00,
2013-10-31 07:19:00,38.3,25.0,25.05,NNW,327,11.0,20.0,59,0.00,,,0.00,weatherlink.com 1.10,2013-10-31 13:19:00,
2013-10-31 07:34:00,38.1,25.0,25.05,WNW,295,11.0,20.0,59,0.00,,,0.00,weatherlink.com 1.10,2013-10-31 13:34:00,
2013-10-31 07:49:00,38.1,25.0,25.05,NNW,342,6.0,19.0,60,0.00,,,0.00,weatherlink.com 1.10,2013-10-31 13:49:00,
2013-10-31 08:04:00,38.7,25.0,25.06,NNW,338,10.0,20.0,59,0.00,,,0.00,weatherlink.com 1.10,2013-10-31 14:04:00,
2013-10-31 08:19:00,39.6,25.0,25.06,WNW,299,9.0,21.0,57,0.00,,,0.00,weatherlink.com 1.10,2013-10-31 14:19:00,
2013-10-31 08:34:00,40.9,25.0,25.06,West,262,10.0,21.0,53,0.00,,,0.00,weatherlink.com 1.10,2013-10-31 14:34:00,
2013-10-31 08:49:00,42.0,24.0,25.06,NW,317,20.0,27.0,49,0.00,,,0.00,weatherlink.com 1.10,2013-10-31 14:49:00,
2013-10-31 09:04:00,43.0,23.0,25.07,NW,316,21.0,30.0,46,0.00,,,0.00,weatherlink.com 1.10,2013-10-31 15:04:00,
2013-10-31 09:19:00,44.1,23.0,25.06,NW,317,18.0,32.0,43,0.00,,,0.00,weatherlink.com 1.10,2013-10-31 15:19:00,
2013-10-31 09:34:00,44.8,23.0,25.06,WNW,283,17.0,34.0,42,0.00,,,0.00,weatherlink.com 1.10,2013-10-31 15:34:00,
2013-10-31 09:49:00,45.3,23.0,25.06,NW,312,11.0,38.0,41,0.00,,,0.00,weatherlink.com 1.10,2013-10-31 15:49:00,
2013-10-31 10:05:00,46.0,23.0,25.06,NW,312,28.0,35.0,41,0.00,,,0.00,weatherlink.com 1.10,2013-10-31 16:05:00,
2013-10-31 10:19:00,46.5,23.0,25.07,NNW,334,21.0,36.0,39,0.00,,,0.00,weatherlink.com 1.10,2013-10-31 16:19:00,
2013-10-31 10:34:00,47.0,24.0,25.07,NW,312,26.0,36.0,40,0.00,,,0.00,weatherlink.com 1.10,2013-10-31 16:34:00,
2013-10-31 10:49:00,47.8,24.0,25.07,NW,311,24.0,32.0,39,0.00,,,0.00,weatherlink.com 1.10,2013-10-31 16:49:00,
2013-10-31 11:04:00,48.2,23.0,25.07,WNW,297,27.0,35.0,38,0.00,,,0.00,weatherlink.com 1.10,2013-10-31 17:04:00,
2013-10-31 11:19:00,49.0,24.0,25.07,NNW,328,24.0,36.0,37,0.00,,,0.00,weatherlink.com 1.10,2013-10-31 17:19:00,
2013-10-31 11:34:00,49.7,24.0,25.07,NW,319,24.0,33.0,37,0.00,,,0.00,weatherlink.com 1.10,2013-10-31 17:34:00,
2013-10-31 11:49:00,49.5,24.0,25.06,NNW,328,19.0,40.0,37,0.00,,,0.00,weatherlink.com 1.10,2013-10-31 17:49:00,
2013-10-31 12:04:00,50.0,24.0,25.05,WNW,300,29.0,35.0,37,0.00,,,0.00,weatherlink.com 1.10,2013-10-31 18:04:00,
2013-10-31 12:19:00,50.6,24.0,25.05,WNW,300,13.0,34.0,36,0.00,,,0.00,weatherlink.com 1.10,2013-10-31 18:19:00,
2013-10-31 12:34:00,50.7,24.0,25.05,WNW,294,22.0,33.0,36,0.00,,,0.00,weatherlink.com 1.10,2013-10-31 18:34:00,
2013-10-31 12:49:00,50.6,24.0,25.04,NNW,338,14.0,38.0,36,0.00,,,0.00,weatherlink.com 1.10,2013-10-31 18:49:00,
2013-10-31 13:04:00,51.0,25.0,25.05,NW,309,19.0,38.0,37,0.00,,,0.00,weatherlink.com 1.10,2013-10-31 19:04:00,
2013-10-31 13:19:00,51.2,24.0,25.04,NW,309,24.0,32.0,35,0.00,,,0.00,weatherlink.com 1.10,2013-10-31 19:19:00,
2013-10-31 13:34:00,51.4,24.0,25.03,NNW,334,20.0,34.0,35,0.00,,,0.00,weatherlink.com 1.10,2013-10-31 19:34:00,
2013-10-31 13:49:00,51.3,24.0,25.03,NNW,332,19.0,30.0,35,0.00,,,0.00,weatherlink.com 1.10,2013-10-31 19:49:00,
2013-10-31 14:04:00,52.1,26.0,25.02,NW,315,16.0,29.0,36,0.00,,,0.00,weatherlink.com 1.10,2013-10-31 20:04:00,
2013-10-31 14:20:00,51.1,25.0,25.03,NW,309,26.0,31.0,37,0.00,,,0.00,weatherlink.com 1.10,2013-10-31 20:20:00,
2013-10-31 14:35:00,50.1,26.0,25.03,NW,316,17.0,29.0,39,0.00,,,0.00,weatherlink.com 1.10,2013-10-31 20:35:00,
2013-10-31 14:50:00,49.7,27.0,25.03,NW,308,21.0,31.0,41,0.00,,,0.00,weatherlink.com 1.10,2013-10-31 20:50:00,
2013-10-31 15:05:00,49.4,27.0,25.02,WNW,291,23.0,30.0,42,0.00,,,0.00,weatherlink.com 1.10,2013-10-31 21:05:00,
2013-10-31 15:20:00,49.8,27.0,25.02,WNW,301,15.0,29.0,42,0.00,,,0.00,weatherlink.com 1.10,2013-10-31 21:20:00,
2013-10-31 15:35:00,51.4,27.0,25.02,WNW,300,18.0,35.0,39,0.00,,,0.00,weatherlink.com 1.10,2013-10-31 21:35:00,
2013-10-31 15:50:00,51.5,28.0,25.01,West,277,11.0,26.0,41,0.00,,,0.00,weatherlink.com 1.10,2013-10-31 21:50:00,
2013-10-31 16:05:00,51.9,28.0,25.01,NW,311,17.0,33.0,40,0.00,,,0.00,weatherlink.com 1.10,2013-10-31 22:05:00,
2013-10-31 16:20:00,51.6,28.0,25.02,WNW,290,23.0,31.0,40,0.00,,,0.00,weatherlink.com 1.10,2013-10-31 22:20:00,
2013-10-31 16:35:00,51.4,28.0,25.01,NW,313,18.0,23.0,41,0.00,,,0.00,weatherlink.com 1.10,2013-10-31 22:35:00,
2013-10-31 16:50:00,51.3,29.0,25.01,West,281,15.0,24.0,42,0.00,,,0.00,weatherlink.com 1.10,2013-10-31 22:50:00,
2013-10-31 17:05:00,50.9,28.0,25.02,NW,323,19.0,23.0,42,0.00,,,0.00,weatherlink.com 1.10,2013-10-31 23:05:00,
2013-10-31 17:20:00,50.2,28.0,25.02,WNW,298,13.0,22.0,43,0.00,,,0.00,weatherlink.com 1.10,2013-10-31 23:20:00,
2013-10-31 17:35:00,49.4,29.0,25.02,NW,315,4.0,17.0,45,0.00,,,0.00,weatherlink.com 1.10,2013-10-31 23:35:00,
2013-10-31 17:50:00,48.2,29.0,25.02,WNW,295,10.0,20.0,47,0.00,,,0.00,weatherlink.com 1.10,2013-10-31 23:50:00,
2013-10-31 18:05:00,47.5,28.0,25.02,NW,304,13.0,21.0,47,0.00,,,0.00,weatherlink.com 1.10,2013-11-01 00:05:00,
2013-10-31 18:20:00,47.2,28.0,25.02,WNW,286,7.0,24.0,48,0.00,,,0.00,weatherlink.com 1.10,2013-11-01 00:20:00,
2013-10-31 18:35:00,46.9,28.0,25.02,NW,316,10.0,26.0,49,0.00,,,0.00,weatherlink.com 1.10,2013-11-01 00:35:00,
2013-10-31 18:50:00,46.7,28.0,25.02,NW,312,16.0,27.0,49,0.00,,,0.00,weatherlink.com 1.10,2013-11-01 00:50:00,
2013-10-31 19:05:00,46.7,28.0,25.03,NNW,345,10.0,25.0,49,0.00,,,0.00,weatherlink.com 1.10,2013-11-01 01:05:00,
2013-10-31 19:20:00,46.6,29.0,25.04,NW,326,7.0,20.0,50,0.00,,,0.00,weatherlink.com 1.10,2013-11-01 01:20:00,
2013-10-31 19:35:00,46.0,29.0,25.04,NW,313,11.0,15.0,51,0.00,,,0.00,weatherlink.com 1.10,2013-11-01 01:35:00,
2013-10-31 19:50:00,46.0,29.0,25.05,West,273,5.0,14.0,51,0.00,,,0.00,weatherlink.com 1.10,2013-11-01 01:50:00,
2013-10-31 20:05:00,44.8,29.0,25.05,WNW,291,8.0,14.0,54,0.00,,,0.00,weatherlink.com 1.10,2013-11-01 02:05:00,
2013-10-31 20:20:00,43.7,29.0,25.05,West,266,5.0,12.0,56,0.00,,,0.00,weatherlink.com 1.10,2013-11-01 02:20:00,
2013-10-31 20:35:00,43.9,28.0,25.05,West,266,7.0,14.0,55,0.00,,,0.00,weatherlink.com 1.10,2013-11-01 02:35:00,
2013-10-31 20:50:00,44.3,29.0,25.05,West,265,5.0,15.0,55,0.00,,,0.00,weatherlink.com 1.10,2013-11-01 02:50:00,
2013-10-31 21:05:00,43.4,29.0,25.06,NW,323,4.0,12.0,57,0.00,,,0.00,weatherlink.com 1.10,2013-11-01 03:05:00,
2013-10-31 21:20:00,44.8,30.0,25.06,WNW,295,9.0,18.0,56,0.00,,,0.00,weatherlink.com 1.10,2013-11-01 03:20:00,
2013-10-31 21:35:00,44.7,31.0,25.06,NW,319,13.0,18.0,58,0.00,,,0.00,weatherlink.com 1.10,2013-11-01 03:35:00,
2013-10-31 21:50:00,44.4,31.0,25.07,NNW,327,11.0,17.0,59,0.00,,,0.00,weatherlink.com 1.10,2013-11-01 03:50:00,
2013-10-31 22:05:00,45.2,31.0,25.07,NW,304,9.0,16.0,59,0.00,,,0.00,weatherlink.com 1.10,2013-11-01 04:05:00,
2013-10-31 22:20:00,46.6,31.0,25.09,NW,321,7.0,23.0,55,0.00,,,0.00,weatherlink.com 1.10,2013-11-01 04:20:00,
2013-10-31 22:35:00,46.9,31.0,25.09,WNW,289,19.0,26.0,55,0.00,,,0.00,weatherlink.com 1.10,2013-11-01 04:35:00,
2013-10-31 22:50:00,42.5,36.0,25.11,NNW,330,18.0,28.0,78,0.00,,,0.00,weatherlink.com 1.10,2013-11-01 04:50:00,
2013-10-31 23:05:00,41.9,36.0,25.11,NW,326,19.0,30.0,79,0.01,,,0.01,weatherlink.com 1.10,2013-11-01 05:05:00,
2013-10-31 23:20:00,40.0,36.0,25.12,NNW,340,22.0,26.0,85,0.01,,,0.01,weatherlink.com 1.10,2013-11-01 05:20:00,
2013-10-31 23:35:00,39.6,36.0,25.12,North,349,16.0,20.0,88,0.02,,,0.02,weatherlink.com 1.10,2013-11-01 05:35:00,
2013-10-31 23:50:00,40.0,37.0,25.12,NNW,330,15.0,21.0,88,0.03,,,0.01,weatherlink.com 1.10,2013-11-01 05:50:00,